Location: Artiguedieu
(43.5000°N, 0.5454°E)
Time: 03:44:59
(UTC+00:00)

HuskySat-1 - Pass Details

Date: 01 October 2021
Orbit: 446 x 458 km, 51.6° (Epoch: 19 October)

Event Time Altitude Azimuth Distance (km) Brightness Sun altitude
Rises 18:43:43 0° 246° (WSW) 2,449 ? -12.6°
Reaches altitude 10° 18:45:51 10° 250° (WSW) 1,582 ? -13.0°
Maximum altitude 18:49:23 61° 331° (NNW) 518 ? -13.6°
Enters shadow 18:52:09 16° 50° (NE) 1,278 ? -14.1°
